EHI
0 0 0 0 0 0 0 0 0 0 0 0 0 0 0 0 0 0 0 0 0 0 0 0 0 0 0 0 0 0 0 0 0 0 0 0 0 0 0 0 0 0 0 0
0 0 0 0 0 0 0 0 0 0 0 0 0 0 0 0 0 0 0 0 0 0 0 0 0 0 0 0 0 0 0 0 0 0 0 0 0 0 0 0 0 0 0 0
0 0 0 0 0 0 0 0 0 0 0 0 0 0 0 0 0 0 0 0 0 0 0 0 0 0 0 0 0 0 0 0 0 0 0 0 0 0 0 0 0 0 0 0
0 0 0 0 0 0 0 0 0 0 0 0 0 0 0 0 0 0 0 0 0 0 0 0 0 0 0 0 0 0 0 0 0 0 0 0 0 0 0 0 0 0 0 0
0 0 0 0 0 0 0 0 0 0 0 0 0 0 0 0 0 0 0 0 0 0 0 0 0 0 0 0 0 0 0 0 0 0 0 0 0 0 0 0 0 0 0 0
0 0 0 0 0 0 0 0 0 0 0 0 0 0 0 0 0 0 0 0 0 0 0 0 0 0 0 0 0 0 0 0 0 0 0 0 0 0 0 0 0 0 0 0
0 0 0 0 0 0 0 0 0 0 0 0 0 0 0 0 0 0 0 0 0 0 0 0 0 0 0 0 0 0 0 0 0 0 0 0 0 0 0 0 0 0 0 0
0 0 0 0 0 0 0 0 0 0 0 0 0 0 0 0 0 0 0 0 0 0 0 0 0 0 0 0 0 0 0 0 0 0 0 0 0 0 0 0 0 0 0 0
0 0 0 0 0 0 0 0 0 0 0 0 0 0 0 0 0 0 0 0 0 0 0 0 0 0 0 0 0 0 0 0 0 0 0 0 0 0 0 0 0 0 0 0
0 0 0 0 0 0 0 0 0 0 0 0 0 0 0 0 0 0 0 0 0 0 0 0 0 0 0 0 0 0 0 0 0 0 0 0 0 0 0 0 0 0 0 0
0 0 0 0 0 0 0 0 0 0 0 0 0 0 0 0 0 0 0 0 0 0 0 0 0 0 0 0 0 0 0 0 0 0 0 0 0 0 0 0 0 0 0 0
0 0 0 0 0 0 0 0 0 0 0 0 0 0 0 0 0 0 0 0 0 0 0 0 0 0 0 0 0 0 0 0 0 0 0 0 0 0 0 0 0 0 0 0
0 0 0 0 0 0 0 0 0 0 0 0 0 0 0 0 0 0 0 0 0 0 0 0 0 0 0 0 0 0 0 0 0 0 0 0 0 0 0 0 0 0 0 0
0 0 0 0 0 0 0 0 0 0 0 0 0 0 0 0 0 0 0 0 0 0 0 0 0 0 0 0 0 0 0 0 0 0 0 0 0 0 0 0 0 0 0 0
0 0 0 0 0 0 0 0 0 0 0 0 0 0 0 0 0 0 0 0 0 0 0 0 0 0 0 0 0 0 0 0 0 0 0 0 0 0 0 0 0 0 0 0
0 0 0 0 0 0 0 0 0 0 0 0 0 0 0 0 0 0 0 0 0 0 0 0 0 0 0 0 0 0 0 0 0 0 0 0 0 0 0 0 0 0 0 0
0 0 0 0 0 0 0 0 0 0 0 0 0 0 0 0 0 0 0 0 0 0 0 0 0 0 0 0 0 0 0 0 0 0 0 0 0 0 0 0 0 0 0 0
0 0 0 0 0 0 0 0 0 0 0 0 0 0 0 0 0 0 0 0 0 0 0 0 0 0 0 0 0 0 0 0 0 0 0 0 0 0 0 0 0 0 0 0
0 0 0 0 0 0 0 0 0 0 0 0 0 0 0 0 0 0 0 0 0 0 0 0 0 0 0 0 0 0 0 0 0 0 0 0 0 0 0 0 0 0 0 0
0 0 0 0 0 0 0 0 0 0 0 0 0 0 0 0 0 0 0 0 0 0 0 0 0 0 0 0 0 0 0 0 0 0 0 0 0 0 0 0 0 0 0 0
0 0 0 0 0 0 0 0 0 0 0 0 0 0 0 0 0 0 0 0 0 0 0 0 0 0 0 0 0 0 0 0 0 0 0 0 0 0 0 0 0 0 0 0
0 0 0 0 0 0 0 0 0 0 0 0 0 0 0 0 0 0 0 0 0 0 0 0 0 0 0 0 0 0 0 0 0 0 0 0 0 0 0 0 0 0 0 0
0 0 0 0 0 0 0 0 0 0 0 0 0 0 0 0 0 0 0 0 0 0 0 0 0 0 0 0 0 0 0 0 0 0 0 0 0 0 0 0 0 0 0 0
0 0 0 0 0 0 0 0 0 0 0 0 0 0 0 0 0 0 0 0 0 0 0 0 0 0 0 0 0 0 0 0 0 0 0 0 0 0 0 0 0 0 0 0
0 0 0 0 0 0 0 0 0 0 0 0 0 0 0 0 0 0 0 0 0 0 0 0 0 0 0 0 0 0 0 0 0 0 0 0 0 0 0 0 0 0 0 0
0 0 0 0 0 0 0 0 0 0 0 0 0 0 0 0 0 0 0 0 0 0 0 0 0 0 0 0 0 0 0 0 0 0 0 0 0 0 0 0 0 0 0 0
0 0 0 0 0 0 0 0 0 0 0 0 0 0 0 0 0 0 0 0 0 0 0 0 0 0 0 0 0 0 0 0 0 0 0 0 0 0 0 0 0 0 0 0
Wind_Speed
5 3 3 5 7 8 10 10 11 10 10 8 5 4 3 2 2 2 2 3 3 4 5 5 6 6 6 6 6 5 6 7 8 9 9 9 9 9 9 9 10 10 11 11
2 1 2 5 10 10 11 9 9 8 9 3 1 3 2 2 2 1 2 3 5 5 6 6 6 6 6 6 6 6 7 8 9 9 9 9 10 10 10 10 10 10 11 12
3 1 3 9 11 10 7 7 8 9 6 3 2 2 2 2 1 0 2 4 5 6 6 6 6 5 6 6 6 7 8 9 10 10 10 11 11 11 11 11 10 11 11 11
2 2 8 9 2 5 5 3 5 4 3 4 2 1 1 2 2 1 3 4 5 6 6 6 5 5 6 6 7 8 9 10 10 10 11 11 11 11 12 10 11 11 12 12
4 4 9 9 4 6 7 4 3 6 4 2 1 2 2 1 1 1 3 4 5 5 5 5 6 6 7 8 8 8 10 10 10 10 12 12 13 13 12 12 12 12 12 13
5 5 9 8 2 3 5 4 4 6 5 3 3 1 3 1 2 3 4 4 4 5 5 6 7 6 7 9 9 10 11 11 11 10 12 13 14 14 12 11 13 13 13 12
6 7 11 7 3 5 4 6 6 6 5 5 5 5 3 3 3 3 4 5 5 6 6 7 7 7 8 10 11 11 11 11 11 11 11 13 13 12 12 12 13 13 14 13
7 6 12 3 6 7 5 4 5 5 4 4 4 3 2 3 4 5 5 5 6 6 8 8 7 7 9 11 12 11 11 12 12 11 11 11 12 13 12 12 13 13 13 13
10 8 2 1 4 3 5 5 4 4 3 2 2 2 2 3 4 5 5 6 6 7 9 9 8 7 11 13 12 12 12 12 12 12 10 10 12 13 12 10 11 11 11 12
4 5 2 1 3 3 3 4 3 2 2 2 2 2 3 4 4 5 6 6 6 7 9 11 9 9 10 12 11 12 13 13 12 12 12 10 9 9 10 10 11 12 12 12
4 2 2 2 3 3 3 3 2 2 1 2 2 3 3 4 5 6 6 6 6 8 10 12 11 11 10 10 10 12 12 12 12 11 12 12 10 9 11 10 13 15 12 11
7 7 7 6 5 4 4 2 2 2 1 1 3 4 4 5 6 6 7 7 8 9 10 12 11 11 10 9 9 11 12 11 10 10 10 11 11 12 16 18 24 25 24 22
3 3 4 3 4 4 4 3 2 3 3 3 3 4 5 5 6 7 8 9 10 11 11 12 12 12 11 9 9 10 12 12 10 10 11 11 11 12 14 15 19 22 23 24
3 4 4 3 4 3 3 2 2 1 2 3 4 5 5 6 7 9 10 10 10 11 11 12 12 12 11 10 9 10 11 14 14 11 11 11 11 12 12 13 14 11 14 21
2 3 4 4 4 3 2 2 1 2 3 4 4 6 7 8 9 11 11 10 10 11 11 11 12 13 10 9 10 11 11 9 10 10 10 11 11 11 11 12 12 12 11 13
3 4 4 4 3 2 2 2 2 4 4 5 6 8 8 9 10 11 11 10 10 12 12 12 13 13 10 10 11 10 9 17 17 12 11 11 11 11 11 11 11 11 10 10
5 4 3 3 2 2 2 3 4 5 6 7 9 9 9 9 10 11 11 10 9 11 12 12 13 12 10 10 10 9 9 12 19 14 10 11 11 11 11 10 10 11 10 12
4 4 4 4 3 3 3 4 5 6 7 9 9 9 9 10 12 13 12 11 10 11 11 11 11 11 10 9 9 8 9 10 10 11 11 10 11 10 10 10 11 12 10 11
3 3 2 2 2 3 4 6 7 7 8 8 9 10 10 11 11 12 11 10 11 14 11 8 15 13 10 12 15 8 10 11 11 11 10 15 13 10 10 10 10 11 10 10
2 1 0 2 3 4 6 7 8 8 9 8 9 10 11 11 10 10 10 10 10 10 10 12 11 9 9 10 16 9 9 10 12 11 11 10 11 11 10 10 11 10 9 9
1 2 3 4 5 6 7 7 8 9 9 8 9 11 12 12 10 9 9 11 10 9 10 16 10 8 8 12 16 8 8 10 11 10 11 11 11 11 11 10 10 10 9 8
2 3 5 6 6 8 7 7 8 9 10 9 10 10 11 11 10 9 9 9 10 14 10 7 7 12 16 18 8 7 9 10 10 10 10 10 10 11 11 11 10 10 8 8
4 5 6 7 7 8 9 8 8 8 9 10 10 11 11 10 8 9 11 7 7 14 11 7 13 21 24 12 7 8 10 11 10 10 10 10 10 10 10 11 10 9 8 8
6 6 7 7 6 7 9 10 9 8 9 10 10 10 10 9 8 7 8 14 17 18 10 13 21 23 21 8 7 8 9 10 10 10 10 10 9 9 10 10 9 8 8 9
7 7 7 7 7 7 9 9 9 9 9 8 10 10 8 7 8 9 8 9 15 17 9 13 20 21 12 7 8 9 9 10 11 11 10 9 10 10 9 9 9 9 8 7
6 6 7 7 7 7 7 7 8 8 8 9 9 7 7 6 8 8 7 9 11 15 11 8 9 12 8 8 9 10 10 11 11 10 10 10 11 10 9 9 11 9 8 7
7 6 6 7 7 6 6 7 8 9 8 9 11 9 8 8 7 8 9 8 8 8 8 8 7 8 8 8 9 9 9 9 9 10 10 9 9 9 9 10 9 8 7 7
Wind_Direction
238 223 188 216 215 197 200 204 215 234 232 249 250 229 201 167 128 97 48 5 343 325 314 314 318 317 315 311 311 313 313 307 298 294 292 291 290 289 288 285 283 281 281 280
268 251 223 255 244 226 226 225 233 256 266 251 162 130 141 155 133 94 347 327 321 317 313 311 309 306 306 305 306 309 304 298 296 297 296 294 292 291 290 288 285 283 281 282
247 310 357 270 240 217 213 209 198 224 235 148 123 141 181 189 149 7 311 306 307 305 300 300 298 296 297 296 301 303 297 295 296 296 294 292 291 292 291 291 288 287 283 282
169 131 239 243 220 175 182 222 201 177 147 145 157 233 253 184 147 317 309 305 304 302 301 299 294 295 292 295 298 297 295 293 292 292 292 293 293 292 291 289 289 288 288 285
155 218 270 287 238 176 174 225 192 158 151 139 65 21 333 156 110 296 292 290 286 288 288 293 296 295 300 300 299 297 294 292 292 293 295 297 297 296 294 294 293 289 288 287
154 195 242 248 201 153 117 233 206 159 160 163 121 62 267 271 328 312 309 303 300 301 299 299 297 301 302 299 300 297 294 293 294 294 294 296 296 296 295 292 292 294 291 287
184 219 257 249 193 130 177 236 169 164 172 174 184 205 239 309 315 312 311 308 308 307 302 296 299 304 298 297 294 292 294 295 296 294 292 293 293 293 294 295 294 293 292 290
169 203 249 208 144 180 195 140 148 164 177 189 216 253 287 304 306 314 312 307 307 304 300 298 298 297 295 294 294 296 297 297 298 296 294 298 296 296 295 295 297 296 295 294
191 210 258 163 168 154 136 142 161 168 181 181 213 254 286 293 297 297 294 293 293 292 294 296 293 288 290 294 300 302 301 300 300 299 295 292 294 298 300 297 295 297 297 297
220 248 224 139 125 122 124 139 146 143 151 161 206 255 279 282 284 289 289 289 290 295 296 297 296 289 283 292 299 301 302 303 302 302 302 297 293 293 295 297 296 296 296 298
225 223 147 220 195 161 128 108 104 104 139 179 209 253 261 269 278 280 283 285 285 286 287 289 292 291 290 292 298 300 301 301 302 300 300 301 296 291 294 285 288 296 297 297
213 199 182 205 193 165 153 160 164 165 182 209 212 240 259 266 270 274 279 281 284 283 283 288 291 293 293 292 293 297 303 304 303 302 300 300 301 300 294 295 300 301 300 299
194 154 155 150 142 147 157 168 174 187 204 229 245 243 253 263 268 271 276 280 279 282 286 289 292 293 294 292 291 290 293 300 301 300 301 301 302 303 305 304 301 302 303 304
155 124 124 144 155 156 153 156 163 194 231 239 249 259 262 266 272 277 278 279 279 283 286 288 289 290 291 291 291 289 291 296 300 298 297 297 298 299 300 303 307 304 303 306
133 132 144 137 132 137 143 147 158 260 268 271 260 264 269 272 276 278 280 282 284 284 285 287 289 291 292 291 291 292 295 295 295 295 295 295 296 297 297 297 297 300 302 304
129 107 117 128 143 155 165 187 228 263 271 274 278 276 272 270 274 279 281 281 282 286 290 291 290 291 293 292 292 294 293 299 305 303 299 299 298 297 297 296 297 298 300 303
141 146 150 158 178 200 219 231 242 258 269 274 274 277 281 283 284 284 283 278 273 277 282 285 286 290 290 288 289 294 295 298 303 303 297 296 297 297 295 295 297 298 297 300
160 161 166 173 191 226 258 263 263 266 266 267 276 280 280 280 283 286 288 291 290 286 280 276 280 289 287 289 291 291 293 295 296 298 298 298 297 297 298 298 298 298 300 304
130 138 154 192 222 238 255 267 270 269 272 276 278 278 277 277 278 282 286 289 291 293 289 277 296 301 292 293 301 293 292 295 299 299 298 299 302 298 297 297 297 298 301 303
88 88 308 284 276 260 265 271 275 277 277 276 278 282 284 283 281 283 286 282 274 272 280 290 293 286 287 291 300 293 293 299 301 301 300 298 298 299 298 297 297 298 299 299
355 304 294 287 284 278 271 273 278 281 283 281 279 281 284 286 284 282 285 289 284 275 282 295 298 292 294 297 302 297 298 300 300 300 299 300 299 299 298 298 297 299 299 300
291 286 286 285 283 284 282 279 277 280 285 284 281 280 283 287 286 281 268 269 282 293 297 285 286 295 303 308 302 300 300 300 299 299 298 298 298 298 298 299 299 298 298 298
279 278 279 280 280 282 287 285 280 279 279 280 281 282 281 281 282 286 291 282 281 295 300 286 297 305 310 313 302 301 300 300 299 299 298 296 295 295 297 298 297 297 296 296
281 281 279 280 284 285 285 284 282 278 275 277 276 274 276 283 283 269 269 290 299 302 298 296 305 309 314 310 300 298 298 299 298 296 295 296 296 295 294 295 296 295 293 293
277 278 280 283 282 278 277 283 288 286 283 281 279 276 270 264 273 284 284 286 294 302 297 300 306 310 310 298 297 297 297 296 298 301 300 300 297 296 295 295 296 296 294 292
272 273 271 267 266 272 277 282 284 286 288 290 289 284 279 275 274 279 283 284 284 295 297 295 296 301 298 295 295 296 297 300 302 300 297 297 296 296 296 296 297 295 292 290
274 272 274 277 272 264 265 271 278 282 283 284 288 289 286 285 284 285 286 288 289 290 291 292 292 294 295 295 295 296 296 297 297 296 296 296 295 295 295 295 294 293 291 290